Location: Dal�� Lhota
(48.7500°N, 14.0167°E)
Time: 02:37:25
(UTC+00:00)

Resurs 01 Rocket - Pass Details

Date: 24 September 2020
Orbit: 633 x 645 km, 98.0° (Epoch: 29 October)

Event Time Altitude Azimuth Distance (km) Brightness Sun altitude
Exits shadow 18:25:50 21° 76° (ENE) 1,432 2.9 -15.3°
Maximum altitude 18:26:31 22° 62° (ENE) 1,402 3.0 -15.4°
Drops below altitude 10° 18:29:57 10° 12° (NNE) 2,051 4.3 -16.0°
Sets 18:32:32 0° 358° (N) 2,963 5.3 -16.4°
